Location: Campillo
(40.8621°N, 4.2488°W)
Time: 14:31:19
(UTC+00:00)

Cosmos 1777 Rocket - Pass Details

Date: 27 September 2021
Orbit: 759 x 775 km, 74.0° (Epoch: 23 October)

Event Time Altitude Azimuth Distance (km) Brightness Sun altitude
Rises 18:39:29 0° 187° (S) 3,224 7.3 -7.3°
Reaches altitude 10° 18:41:52 10° 183° (S) 2,299 6.5 -7.7°
Maximum altitude 18:46:59 59° 105° (ESE) 883 4.0 -8.7°
Drops below altitude 10° 18:52:07 10° 27° (NNE) 2,305 6.3 -9.6°
Sets 18:54:31 0° 24° (NNE) 3,233 7.1 -10.1°
